Torna al catalogo

LUCAS

JDRS-1

AttivoComunicazioniGEO
NORAD 47202·PAYLOAD·🇯🇵 Japan

Lanciato Nov 29, 2020 da Tanegashima Space Center

Loading…

TLE

AggiornatoSource: Space-Track

Epoca: Sep 14, 2026, 14:14 UTC

1 47202U 20089A   26257.59312775 -.00000244  00000-0  00000-0 0  9996
2 47202   0.0480 283.9250 0002048 262.4520 111.5116  1.00273291 21311

Traccia LUCAS in tempo reale con AllMySat

Download on the App Store